Tracking 29892 objects as of 21-Nov-2024
HD Live streaming from Space Station
objects crossing your sky now

OBJECT G

Track OBJECT G now!
10-day predictions


NORAD ID: 53450
Int'l Code: 2022-098G
Perigee: 490.6 km
Apogee: 495.7 km
Inclination: 97.5 °
Period: 94.3 minutes
Semi major axis: 6864 km
RCS: Unknown
Launch date: August 10, 2022
Source: People's Republic of China (PRC)
Launch site: Taiyaun Space Center, China (TSC)
Your satellite tracking list
Your tracking list is empty




NASA's NSSDC Master Catalog

Two Line Element Set (TLE):
1 53450U 22098G   24326.13282528  .00026904  00000-0  10278-2 0  9997
2 53450  97.5328  66.2759 0003767 286.3568  73.7256 15.26593116126366
Source of the keplerian elements: AFSPC